Regional Weather Roundup
Issued by NWS Goodland, KS

Home | Current Version | Previous Version | Text Only | Print | Product List | Glossary Off
Versions: 1 2 3 4 5 6 7 8 9 10 11 12 13 14 15 16 17 18 19 20 21 22 23 24 25 26 27 28 29 30 31 32 33 34 35 36 37 38 39 40 41 42 43 44 45 46 47 48 49 50

000
ASUS43 KGLD 181059
RWRGLD

GOODLAND FORECAST AREA HOURLY WEATHER ROUNDUP
NATIONAL WEATHER SERVICE GOODLAND KS
500 AM MDT THU SEP 18 2014

...OFFICIAL OBSERVATIONS...

CITY           SKY/WX    TMP DP  RH WIND       PRES   REMARKS
GOODLAND KS    FOG       63  63 100 E3        29.96S VSB 1/2
HILL CITY KS   FOG       65  64  97 E7        29.93S VSB 3/4
IMPERIAL NEB   FOG       65  63  93 E6        29.95F VSB 1/4
MCCOOK NEB     CLOUDY    62  62 100 E7        29.95S FOG
AKRON CO       CLEAR     58  44  60 W8        29.99S
BURLINGTON CO  FOG       57  56  96 W5        29.98S VSB<1/4
LIMON CO       CLEAR     46  40  79 NW6       30.05F
$$

...UNOFFICIAL OBSERVATIONS...

CITY           SKY/WX    TMP DP  RH WIND       PRES   REMARKS
GOVE KS          N/A     67  32  27 MISG        N/A
SHARON SPRINGS   N/A     62  61  96 CALM        N/A
WAKEENEY KS      N/A     67  66  99 MISG        N/A
TRENTON NEB      N/A     63  32  31 E9          N/A
YUMA CO          N/A     51  48  89 CALM        N/A
$$



USA.gov is the U.S. government's official web portal to all federal, state and local government web resources and services.